Location: *
(43.9905°S, 176.4941°W)
Time: 22:54:01
(UTC+00:00)

Cosmos 2181 Rocket - Pass Details

Date: 08 December 2019
Orbit: 952 x 1014 km, 82.9° (Epoch: 22 January)

Event Time Altitude Azimuth Distance (km) Brightness Sun altitude
Exits shadow 11:07:52 32° 320° (NW) 1,654 4.8 -22.9°
Maximum altitude 11:10:44 56° 258° (WSW) 1,197 4.5 -23.0°
Drops below altitude 10° 11:17:08 10° 180° (S) 2,827 7.5 -23.1°
Sets 11:19:47 0° 175° (S) 3,788 8.5 -23.2°
